This is the latest recevied weather packets stored in our database for station/object K4JOZ. If no packets are shown the sender has not sent any weather packets the latest 1 day(s).
| Time | Temp. | Humidity | Pressure | Rain* | Wind** | Luminosity | Snow |
|---|---|---|---|---|---|---|---|
| 1778029669 | 18.33° C | 68% | 1008.5 hPa | 0 mm | 0.45 m/s, 254° | - | - |
| 1778028769 | 18.89° C | 68% | 1008.6 hPa | 0 mm | 0.45 m/s, 254° | - | - |
| 1778027869 | 19.44° C | 69% | 1008.3 hPa | 0 mm | 0.45 m/s, 250° | - | - |
| 1778026969 | 20° C | 68% | 1008.4 hPa | 0 mm | 0 m/s | - | - |
| 1778026069 | 20.56° C | 64% | 1008.3 hPa | 0 mm | 0.45 m/s, 133° | - | - |
| 1778025169 | 21.11° C | 63% | 1008.3 hPa | 0 mm | 0.45 m/s, 269° | - | - |
| 1778024269 | 21.67° C | 63% | 1008.3 hPa | 0 mm | 0.45 m/s, 263° | - | - |
| 1778023369 | 22.22° C | 59% | 1008.6 hPa | 0 mm | 0.45 m/s, 263° | - | - |
| 1778022469 | 22.78° C | 54% | 1008.6 hPa | 0 mm | 0 m/s | - | - |
| 1778021569 | 22.22° C | 56% | 1008.7 hPa | 0 mm | 0.45 m/s, 263° | - | - |
| 1778020669 | 22.22° C | 54% | 1008.8 hPa | 0 mm | 1.34 m/s, 263° | - | - |
| 1778019769 | 22.78° C | 52% | 1008.9 hPa | 0 mm | 1.34 m/s, 287° | - | - |
| 1778018869 | 23.33° C | 51% | 1008.9 hPa | 0 mm | 1.79 m/s, 282° | - | - |
| 1778017969 | 22.78° C | 52% | 1008.9 hPa | 0 mm | 3.13 m/s, 287° | - | - |
| 1778017069 | 23.33° C | 47% | 1008.8 hPa | 0 mm | 2.24 m/s, 289° | - | - |
| 1778016169 | 23.89° C | 49% | 1008.9 hPa | 0 mm | 1.79 m/s, 198° | - | - |
| 1778015269 | 22.78° C | 51% | 1008.9 hPa | 0 mm | 3.13 m/s, 297° | - | - |
| 1778014369 | 23.89° C | 50% | 1009.1 hPa | 0 mm | 2.68 m/s, 268° | - | - |
| 1778013469 | 23.89° C | 49% | 1009.1 hPa | 0 mm | 2.24 m/s, 301° | - | - |
| 1778012569 | 23.89° C | 47% | 1009.3 hPa | 0 mm | 3.13 m/s, 282° | - | - |
| 1778011669 | 23.89° C | 47% | 1009.5 hPa | 0 mm | 2.24 m/s, 225° | - | - |
| 1778010769 | 23.33° C | 47% | 1009.7 hPa | 0 mm | 0.45 m/s, 315° | - | - |
| 1778009869 | 23.33° C | 49% | 1010 hPa | 0 mm | 1.34 m/s, 269° | - | - |
| 1778008969 | 23.33° C | 52% | 1010.3 hPa | 0 mm | 1.34 m/s, 292° | - | - |
| 1778008069 | 22.78° C | 49% | 1010.5 hPa | 0 mm | 2.68 m/s, 286° | - | - |
* Rain latest hour (hover to see other rain measurements)
** Current wind speed in m/s (hover to see current wind gust speed)